Showing default

KINEIS-4E, 63300

Orbit data source: Space-Track

KINEIS-4E, 63300 is a French payload satellite in SSO that was launched on Tue, 18 Mar 2025 UTC via an ELECTRON launch vehicle from the Rocket Lab Launch Complex (RLLC). Payload-class satellites include a variety of spacecraft equipped with specific instruments for various scientific and technological missions. These include communications satellites like Starlink; space stations such as the ISS; scientific satellites like the Hubble; Earth observation satellites from companies like Planet Labs, Umbra, and HawkEye 360; GPS; miniature CubeSats for education and research; and military/defense satellites.

Loading next visibility...
Identifier
63300, 2025-056A
Orbit
SSO
Last TLE update
9 hours ago
Origin
Manufacturer
KINEIS
Mission
Operational Commercial Communications
Bus & Motor
CUBESAT 16U, Unknown motor
Mass
28 kg wet, 28 kg dry
Launch date (UTC)
2025-03-18 (3 months ago)
Launch vehicle
ELECTRON
Launch site
Rocket Lab Launch Complex (RLLC)
Object type
Payload
Rocket body
Debris
Shape & HBR
Box + 2 Pan + 1 Ant, 1.6 m
Radar Cross Section
0.229 m², Medium (>0.1 m² and < 1m²)

Expand to show TLE details & history

TLE from 9 hours ago
0 KINEIS-4E
1 63300U 25056A   25181.88889387  .00001219  00000-0  20058-3 0  9997
2 63300  97.9826 307.3676 0001001  63.0792 297.0518 14.72326936 15434
Epoch: 2025-06-30T21:20Z
TLE epoch observation values (Epoch: 2025-06-30T21:20:00.43Z)
Latitude
0.00001°
Longitude
68.17358°
Altitude
656.338 km
Speed
7.529 km/s
True Right ascension
20h 29m 28s
True Declination
0° 00' 00"
Sunlit
Object was in full shadow at epoch
Visualization orbit readout
Latitude
-64.63878°
Longitude
-128.55978°
Altitude
679.002 km
Speed
7.516 km/s
Apparent Right ascension
06h 40m 03s
Apparent Declination
-53° 02' 15"
Sunlit
Object is in daylight
Visualization observer readout
Local Sidereal Time
18:13:53
Azimuth
196.625° SSW
Elevation
-76.141°
Doppler factor
1
Orbital elements
Apogee altitude
651.408 km
Perigee altitude
650.001 km
Semi-major axis
7,028.841 km
Eccentricity
0.0001
Inclination
97.9826°
RAAN
307.3676°
Arg. of periapsis
63.0792°
True anomaly
Unknown
Mean anomaly
297.0518°
Eccentric anomaly
Unknown
Mean motion
3.68313 °/min
Orbital period
97.74 mins
BSTAR
0.00020058
Loading maneuver chart data...
Loading SW <> Apogee altitude chart data...
Loading historical data...
Loading historical data...
Loading historical data...
Loading historical data...
Loading historical data...
Loading historical data...
Loading historical data...

KINEIS-4E Visibility forecast

Observer location: undefined°, undefined°

Span
Click to sort rows by Start time (UTC) header in descending order
Start Az.
Max El. time (UTC)
Max El. Az.
Max El.
End time (UTC)
End Az.
5 mins2025-07-01 07:17:04.065Z99.304° ESE2025-07-01 07:19:04.065Z68.936° E17.202°2025-07-01 07:22:04.065Z25.083° NE
6 mins2025-07-01 08:53:04.065Z200.439° SSW2025-07-01 08:56:04.065Z275.038° WNW33.405°2025-07-01 08:59:04.065Z328.082° NNW
6 mins2025-07-01 20:46:04.065Z43.614° NE2025-07-01 20:48:04.065Z89.472° E32.414°2025-07-01 20:52:04.065Z165.849° S
4 mins2025-07-01 22:23:04.065Z322.431° NNW2025-07-01 22:25:04.065Z289.071° WNW17.972°2025-07-01 22:27:04.065Z258.422° W
|